Weather Roundup
Issued by NWS Springfield, MO

Home | Current Version | Previous Version | Text Only | Print | Product List | Glossary On
Versions: 1 2 3 4 5 6 7 8 9 10 11 12 13 14 15 16 17 18 19 20 21 22 23 24 25 26 27 28 29 30 31 32 33 34 35 36 37 38 39 40 41 42 43 44 45 46 47 48 49 50
000
NZUS99 KSGF 200407
HRRSGF

HOURLY WEATHER
NATIONAL WEATHER SERVICE SPRINGFIELD MO
1100 PM CDT THU OCT 19 2017

......SGF CWA......

CITY           SKY/WX    TMP DP  RH WIND       PRES   REMARKS
SPRINGFIELD    FAIR      64  49  57 S12       30.14S
JOPLIN         FAIR      59  53  80 S9        30.13S
WEST PLAINS    FAIR      61  49  64 S6        30.21R
ROLLA          FAIR      64  48  56 S15       30.16S
OSAGE BEACH    FAIR      61  50  67 S6        30.15R
BRANSON        CLOUDY    59  50  72 CALM      30.18S

......SURROUNDING SGF CWA......

CITY           SKY/WX    TMP DP  RH WIND       PRES   REMARKS
CHANUTE        FAIR      57  52  83 S8        30.11R
PARSONS        FAIR      60  52  74 S3        30.12R
COFFEYVILLE    FAIR      57  52  83 S3        30.11R
EMPORIA        FAIR      61  52  72 S15       30.07R
GROVE OK       FAIR      54  52  94 CALM      30.14R
ROGERS AR      FAIR      60  52  74 SE7       30.16S
SILOAM SPRINGS FAIR      54  49  83 CALM      30.16R
HARRISON AR    FAIR      58  51  78 S10       30.18S
NEAR YELLVILLE FAIR      61  52  72 CALM      30.18S

......KANSAS AND MISSOURI......

CITY           SKY/WX    TMP DP  RH WIND       PRES   REMARKS
KANSAS CTY INT FAIR      60  53  77 S10       30.08R
DOWNTOWN KC    FAIR      63  54  72 S8        30.07S
COLUMBIA       FAIR      61  51  70 S7        30.13S
SEDALIA        FAIR      57  53  86 S9        30.12S
ST JOSEPH      FAIR      61  54  77 S7        30.06R
ST LOUIS       FAIR      67  50  54 S8        30.16R
SPIRIT OF STL  FAIR      52  52 100 CALM      30.14S
KIRKSVILLE     FAIR      60  52  74 S6        30.11S
WICHITA        FAIR      62  53  72 S16       30.06R
TOPEKA         FAIR      63  54  72 S7        30.06R
OLATHE         FAIR      60  52  74 S8        30.09R

......TENNESSEE......

CITY           SKY/WX    TMP DP  RH WIND       PRES   REMARKS
MEMPHIS        FAIR      63  51  65 VRB3      30.21S
NASHVILLE      FAIR      55  49  80 CALM      30.25S

......ARKANSAS.......

CITY           SKY/WX    TMP DP  RH WIND       PRES   REMARKS
FAYETTEVILLE   FAIR      47  47 100 CALM      30.16R
FT SMITH       FAIR      63  54  72 E5        30.14R
LITTLE ROCK    FAIR      60  53  77 CALM      30.19S

......OKLAHOMA.......

CITY           SKY/WX    TMP DP  RH WIND       PRES   REMARKS
TULSA          FAIR      65  55  70 S9        30.10R
PONCA CITY     FAIR      64  54  69 SE14      30.08R
MCALESTER      MOCLDY    62  54  74 SE5       30.13R
OKLAHOMA CITY  MOCLDY    61  51  70 S9        30.09R

......IOWA............

CITY           SKY/WX    TMP DP  RH WIND       PRES   REMARKS
DES MOINES     FAIR      61  52  72 S10       30.02F
QUAD CITIES    FAIR      60  50  69 CALM      30.10S

......ILLINOIS........

CITY           SKY/WX    TMP DP  RH WIND       PRES   REMARKS
QUINCY         NOT AVBL
CHICAGO        FAIR      54  39  57 SE3       30.15S




USA.gov is the U.S. government's official web portal to all federal, state and local government web resources and services.